period_start,C,m1,H,J0,J1,J2,J3,J4,J5,JA,JB,JC,JD,JJ,JK,JN,#
2016-12-14 00:02:21,0.28,4.57,0.00,21.02,25.80,29.57,14.92,51.09,1028.33,2031.99,2112.62,2093.96,2358.30,600.21,607.23,14.40,0000 0000 0000 0000 000000
2016-12-14 00:07:22,0.25,4.58,0.00,21.00,25.80,29.59,14.90,51.13,1028.26,2031.99,2109.99,2091.82,2355.82,599.93,606.85,14.45,0000 0000 0000 0000 000000
2016-12-14 00:12:24,0.27,4.60,0.00,21.04,25.80,29.56,14.92,51.13,1028.02,2031.99,2107.13,2089.53,2353.22,600.18,607.08,14.50,0000 0000 0000 0000 000000
2016-12-14 00:17:25,0.26,4.61,0.00,21.04,25.82,29.57,14.90,51.12,1028.03,2031.99,2104.32,2087.32,2350.64,600.02,606.70,14.55,0000 0000 0000 0000 000000
2016-12-14 00:22:26,0.26,4.62,0.00,21.10,25.82,29.58,14.91,51.16,1028.11,2031.99,2101.54,2085.16,2348.22,599.98,606.65,14.60,0000 0000 0000 0000 000000
2016-12-14 00:27:27,0.27,4.64,0.00,21.10,25.82,29.62,14.82,51.17,1027.94,2031.99,2098.75,2082.99,2345.68,599.82,606.37,14.65,0000 0000 0000 0000 000000
2016-12-14 00:32:29,0.27,4.65,0.00,21.12,25.83,29.67,14.94,51.32,1027.88,2031.99,2096.00,2080.79,2343.17,599.69,606.03,14.70,0000 0000 0000 0000 000000
2016-12-14 00:37:30,0.27,4.66,0.00,21.14,25.85,29.63,14.87,51.16,1027.89,2031.99,2093.16,2078.53,2340.61,599.83,606.33,14.75,0000 0000 0000 0000 000000
2016-12-14 00:42:31,0.26,4.68,0.00,21.15,25.85,29.67,14.85,51.09,1027.93,2031.98,2090.39,2076.36,2338.18,599.90,606.38,14.80,0000 0000 0000 0000 000000
2016-12-14 00:47:32,0.27,4.69,0.00,21.14,25.86,29.69,14.92,51.06,1028.13,2031.99,2087.55,2074.18,2335.62,599.89,606.51,14.85,0000 0000 0000 0000 000000
2016-12-14 00:52:34,0.27,4.71,0.00,21.18,25.87,29.68,14.86,51.16,1028.26,2031.98,2084.79,2072.00,2333.07,600.04,606.57,14.90,0000 0000 0000 0000 000000
2016-12-14 00:57:35,0.27,4.72,0.00,21.20,25.87,29.70,14.88,51.27,1027.97,2031.96,2081.90,2069.71,2330.50,600.08,606.49,14.95,0000 0000 0000 0000 000000
2016-12-14 01:02:36,0.28,4.73,0.00,21.19,25.89,29.73,14.88,51.24,1027.87,2031.96,2079.01,2067.49,2327.95,600.27,606.62,15.00,0000 0000 0000 0000 000000
2016-12-14 01:07:37,0.27,4.75,0.00,21.22,25.90,29.72,14.87,51.28,1027.84,2031.95,2076.17,2065.28,2325.37,599.97,606.22,15.05,0000 0000 0000 0000 000000
2016-12-14 01:12:39,0.27,4.76,0.00,21.24,25.91,29.75,14.87,51.30,1027.77,2031.91,2073.32,2063.07,2322.85,599.96,606.00,15.10,0000 0000 0000 0000 000000
2016-12-14 01:17:40,0.24,4.77,0.00,21.24,25.92,29.73,14.84,51.17,1027.83,2031.67,2070.46,2060.85,2320.28,600.03,606.19,15.15,0000 0000 0000 0000 000000
2016-12-14 01:22:41,0.26,4.79,0.00,21.23,25.93,29.77,14.84,51.21,1027.79,2031.51,2067.66,2058.64,2317.74,599.99,606.13,15.20,0000 0000 0000 0000 000000
2016-12-14 01:27:42,0.24,4.80,0.00,21.24,25.95,29.74,14.87,51.31,1027.80,2031.19,2064.84,2056.44,2315.25,600.17,606.29,15.25,0000 0000 0000 0000 000000
2016-12-14 01:32:44,0.26,4.81,0.00,21.27,25.96,29.78,14.87,51.26,1027.82,2031.15,2062.08,2054.28,2312.75,599.84,605.99,15.30,0000 0000 0000 0000 000000
2016-12-14 01:37:45,0.26,4.82,0.00,21.29,25.97,29.80,14.89,51.27,1027.82,2031.05,2059.32,2052.09,2310.20,600.43,606.47,15.35,0000 0000 0000 0000 000000
2016-12-14 01:42:46,0.28,4.84,0.00,21.32,25.98,29.81,14.84,51.17,1027.85,2031.03,2056.51,2049.83,2307.62,599.79,605.77,15.40,0000 0000 0000 0000 000000
2016-12-14 01:47:48,0.27,4.86,0.00,21.31,26.00,29.84,14.87,51.26,1027.80,2031.02,2053.63,2047.63,2305.09,599.77,605.89,15.45,0000 0000 0000 0000 000000
2016-12-14 01:52:49,0.26,4.87,0.00,21.33,26.01,29.87,14.88,51.32,1027.43,2031.01,2050.80,2045.67,2302.65,599.74,605.60,15.50,0000 0000 0000 0000 000000
2016-12-14 01:57:50,0.28,4.88,0.00,21.35,26.02,29.88,14.90,51.33,1027.38,2031.00,2048.00,2043.46,2300.11,599.72,605.46,15.55,0000 0000 0000 0000 000000
2016-12-14 02:02:51,0.26,4.90,0.00,21.36,26.03,29.86,14.80,51.33,1027.38,2031.00,2045.38,2041.23,2297.60,599.93,605.71,15.60,0000 0000 0000 0000 000000
2016-12-14 02:07:53,0.28,4.91,0.00,21.34,26.05,29.86,14.80,51.38,1027.35,2031.00,2042.56,2039.03,2295.08,599.73,605.40,15.65,0000 0000 0000 0000 000000
2016-12-14 02:12:54,0.28,4.92,0.00,21.35,26.05,29.91,14.96,51.39,1027.37,2030.98,2039.75,2036.78,2292.47,600.18,605.81,15.70,0000 0000 0000 0000 000000
2016-12-14 02:17:55,0.27,4.94,0.00,21.35,26.06,29.94,14.91,51.29,1027.37,2030.99,2036.92,2034.55,2289.95,600.32,606.00,15.75,0000 0000 0000 0000 000000
2016-12-14 02:22:56,0.28,4.95,0.00,21.37,26.07,29.93,14.92,51.34,1027.37,2030.97,2034.03,2032.35,2287.35,599.99,605.66,15.80,0000 0000 0000 0000 000000
2016-12-14 02:27:58,0.28,4.97,0.00,21.38,26.08,29.90,14.82,51.17,1027.38,2030.94,2031.22,2030.11,2284.75,600.14,605.70,15.85,0000 0000 0000 0000 000000
2016-12-14 02:32:59,0.28,4.98,0.00,21.38,26.10,29.90,14.90,51.52,1027.36,2030.93,2028.39,2027.86,2282.25,600.27,606.03,15.90,0000 0000 0000 0000 000000
2016-12-14 02:38:00,0.29,5.00,0.00,21.39,26.10,29.92,14.97,51.46,1027.36,2030.92,2025.50,2025.61,2279.65,600.36,605.97,15.96,0000 0000 0000 0000 000000
2016-12-14 02:43:01,0.28,5.01,0.00,21.41,26.10,29.97,14.87,51.24,1027.36,2030.83,2022.54,2023.31,2277.00,599.97,605.51,16.01,0000 0000 0000 0000 000000
2016-12-14 02:48:02,0.27,5.02,0.00,21.43,26.12,29.96,14.87,51.27,1027.36,2030.65,2019.59,2021.00,2274.37,600.10,605.69,16.06,0000 0000 0000 0000 000000
2016-12-14 02:53:04,0.24,5.04,0.00,21.43,26.12,29.97,14.90,51.30,1027.36,2030.22,2016.64,2018.65,2271.70,600.27,605.92,16.11,0000 0000 0000 0000 000000
2016-12-14 02:58:05,0.32,5.05,0.00,21.44,26.13,29.95,14.91,51.27,1027.36,2030.19,2013.55,2016.35,2268.94,600.15,605.65,16.16,0000 0000 0000 0000 000000
2016-12-14 03:03:06,0.29,5.07,0.00,21.45,26.15,29.96,14.90,51.29,1027.36,2030.05,2010.48,2013.91,2266.14,600.11,605.57,16.21,0000 0000 0000 0000 000000
2016-12-14 03:08:08,0.29,5.08,0.00,21.46,26.15,29.96,14.84,51.53,1027.36,2030.05,2007.48,2011.56,2263.47,599.62,605.11,16.26,0000 0000 0000 0000 000000
2016-12-14 03:13:09,0.32,5.10,0.00,21.45,26.17,29.95,14.87,51.50,1027.37,2030.01,2004.36,2009.15,2260.70,600.09,605.52,16.31,0000 0000 0000 0000 000000
2016-12-14 03:18:10,0.30,5.11,0.00,21.44,26.17,30.00,14.94,51.47,1027.36,2030.00,2001.28,2006.72,2257.96,600.42,605.95,16.36,0000 0000 0000 0000 000000
2016-12-14 03:23:11,0.30,5.13,0.00,21.42,26.19,30.03,14.92,51.33,1027.36,2030.00,1998.37,2004.43,2255.31,600.31,605.87,16.41,0000 0000 0000 0000 000000
2016-12-14 03:28:12,0.31,5.14,0.00,21.38,26.20,30.05,14.90,51.39,1027.36,2030.00,1995.44,2002.17,2252.63,600.13,605.79,16.46,0000 0000 0000 0000 000000
2016-12-14 03:33:14,0.30,5.16,0.00,21.40,26.20,30.03,14.91,51.42,1027.36,2030.00,1992.41,1999.84,2250.00,600.28,605.85,16.51,0000 0000 0000 0000 000000
2016-12-14 03:38:15,0.29,5.17,0.00,21.36,26.21,30.03,14.87,51.50,1027.46,2030.00,1989.49,1997.54,2247.36,599.90,605.58,16.56,0000 0000 0000 0000 000000
2016-12-14 03:43:16,0.31,5.19,0.00,21.37,26.22,30.02,14.89,51.44,1027.37,2030.00,1986.51,1995.24,2244.68,600.16,605.84,16.61,0000 0000 0000 0000 000000
2016-12-14 03:48:17,0.30,5.21,0.00,21.40,26.22,30.02,14.84,51.28,1027.36,2030.00,1983.64,1992.92,2242.07,600.26,605.86,16.66,0000 0000 0000 0000 000000
2016-12-14 03:53:19,0.28,5.22,0.00,21.38,26.23,30.01,14.91,51.55,1027.36,2030.00,1980.78,1990.58,2239.43,600.06,605.59,16.71,0000 0000 0000 0000 000000
2016-12-14 03:58:20,0.33,5.24,0.00,21.35,26.25,30.04,14.90,51.85,1027.04,2030.00,1977.69,1988.19,2236.84,600.05,605.51,16.76,0000 0000 0000 0000 000000
2016-12-14 04:03:21,0.32,5.25,0.00,21.35,26.25,30.05,14.84,51.68,1026.98,2029.99,1974.58,1985.75,2234.06,600.05,605.50,16.81,0000 0000 0000 0000 000000
2016-12-14 04:08:22,0.32,5.27,0.00,21.37,26.25,30.12,14.88,51.82,1027.25,2029.99,1971.42,1983.40,2231.23,599.97,605.64,16.86,0000 0000 0000 0000 000000
2016-12-14 04:13:24,0.33,5.28,0.00,21.38,26.25,30.10,14.89,51.78,1027.32,2029.98,1968.28,1981.03,2228.42,600.20,605.81,16.91,0000 0000 0000 0000 000000
2016-12-14 04:18:25,0.30,5.30,0.00,21.37,26.25,30.12,14.85,51.64,1027.33,2029.99,1965.26,1978.68,2225.73,600.30,605.98,16.96,0000 0000 0000 0000 000000
2016-12-14 04:23:26,0.33,5.32,0.00,21.39,26.25,30.06,14.94,51.75,1027.36,2029.99,1962.20,1976.28,2223.01,600.28,605.87,17.01,0000 0000 0000 0000 000000
2016-12-14 04:28:27,0.32,5.33,0.00,21.38,26.25,30.07,14.90,51.66,1027.36,2029.98,1959.10,1973.85,2220.20,600.45,606.09,17.06,0000 0000 0000 0000 000000
2016-12-14 04:33:29,0.31,5.35,0.00,21.40,26.25,30.00,14.84,51.65,1027.36,2029.98,1956.07,1971.46,2217.47,599.99,605.57,17.11,0000 0000 0000 0000 000000
2016-12-14 04:38:29,0.33,5.37,0.00,21.43,26.26,30.04,14.93,51.67,1027.37,2029.98,1953.00,1969.05,2214.74,600.12,605.64,17.16,0000 0000 0000 0000 000000
2016-12-14 04:43:31,0.32,5.38,0.00,21.46,26.27,30.05,14.89,51.65,1027.38,2029.97,1949.85,1966.64,2211.95,600.40,605.85,17.21,0000 0000 0000 0000 000000
2016-12-14 04:48:32,0.34,5.40,0.00,21.49,26.27,30.03,14.90,51.77,1027.37,2029.96,1946.63,1964.14,2209.13,600.14,605.56,17.26,0000 0000 0000 0000 000000
2016-12-14 04:53:33,0.30,5.41,0.00,21.50,26.27,30.06,14.92,51.88,1027.36,2029.98,1943.69,1961.86,2206.53,600.18,605.55,17.31,0000 0000 0000 0000 000000
2016-12-14 04:58:34,0.30,5.43,0.00,21.51,26.27,30.07,14.94,51.77,1027.38,2029.98,1940.81,1959.61,2203.97,599.96,605.39,17.36,0000 0000 0000 0000 000000
2016-12-14 05:03:36,0.31,5.45,0.00,21.51,26.28,30.04,14.94,51.65,1027.38,2029.98,1937.85,1957.31,2201.28,600.17,605.51,17.41,0000 0000 0000 0000 000000
2016-12-14 05:08:37,0.32,5.46,0.00,21.51,26.30,30.10,14.86,51.77,1027.36,2029.96,1934.89,1954.96,2198.57,599.92,605.29,17.46,0000 0000 0000 0000 000000
2016-12-14 05:13:39,0.31,5.48,0.00,21.51,26.30,30.09,14.83,51.82,1027.37,2029.95,1931.92,1952.64,2195.90,599.36,604.85,17.51,0000 0000 0000 0000 000000
2016-12-14 05:18:40,0.31,5.49,0.00,21.55,26.30,30.12,14.87,51.72,1027.37,2029.95,1929.01,1950.28,2193.27,600.02,605.18,17.56,0000 0000 0000 0000 000000
2016-12-14 05:23:42,0.32,5.51,0.00,21.55,26.32,30.08,14.84,51.67,1027.36,2029.93,1926.04,1947.94,2190.57,600.10,605.44,17.61,0000 0000 0000 0000 000000
2016-12-14 05:28:42,0.32,5.53,0.00,21.55,26.32,30.13,14.89,51.87,1027.37,2029.90,1923.02,1945.56,2187.88,599.97,605.36,17.66,0000 0000 0000 0000 000000
2016-12-14 05:33:44,0.30,5.54,0.00,21.57,26.32,30.13,14.86,51.90,1027.36,2029.77,1920.04,1943.21,2185.16,599.68,604.93,17.71,0000 0000 0000 0000 000000
2016-12-14 05:38:45,0.31,5.56,0.00,21.58,26.34,30.16,14.87,51.73,1027.36,2029.66,1917.11,1940.89,2182.53,599.92,605.19,17.76,0000 0000 0000 0000 000000
2016-12-14 05:43:46,0.25,5.57,0.00,21.58,26.35,30.15,14.85,51.60,1027.36,2029.44,1914.41,1938.69,2180.02,600.16,605.44,17.81,0000 0000 0000 0000 000000
2016-12-14 05:48:48,0.28,5.59,0.00,21.62,26.35,30.16,14.85,51.72,1027.40,2029.20,1911.63,1936.55,2177.46,600.01,605.17,17.86,0000 0000 0000 0000 000000
2016-12-14 05:53:49,0.29,5.60,0.00,21.64,26.37,30.19,14.84,51.73,1027.56,2029.10,1908.80,1934.31,2174.98,599.88,605.12,17.91,0000 0000 0000 0000 000000
2016-12-14 05:58:50,0.31,5.62,0.00,21.65,26.37,30.14,14.80,51.75,1027.47,2029.06,1905.87,1932.07,2172.45,599.76,604.97,17.96,0000 0000 0000 0000 000000
2016-12-14 06:03:51,0.32,5.63,0.00,21.64,26.39,30.18,14.87,51.97,1027.83,2029.02,1902.94,1929.71,2169.78,599.82,605.23,18.01,0000 0000 0000 0000 000000
2016-12-14 06:08:53,0.32,5.65,0.00,21.66,26.40,30.22,14.86,51.87,1027.69,2029.02,1899.95,1927.38,2167.10,599.92,605.16,18.06,0000 0000 0000 0000 000000
2016-12-14 06:13:54,0.32,5.66,0.00,21.70,26.42,30.27,14.89,51.91,1027.39,2029.01,1897.07,1925.12,2164.46,600.12,605.10,18.11,0000 0000 0000 0000 000000
2016-12-14 06:18:56,0.31,5.68,0.00,21.69,26.42,30.24,14.91,51.87,1027.37,2029.00,1894.21,1922.88,2161.87,599.92,604.92,18.16,0000 0000 0000 0000 000000
2016-12-14 06:23:57,0.32,5.70,0.00,21.69,26.45,30.26,14.90,51.80,1027.27,2029.00,1891.34,1920.64,2159.26,600.16,605.01,18.21,0000 0000 0000 0000 000000
2016-12-14 06:28:59,0.33,5.72,0.00,21.72,26.45,30.29,14.90,51.89,1027.05,2029.00,1888.38,1918.37,2156.59,600.09,604.91,18.26,0000 0000 0000 0000 000000
2016-12-14 06:34:00,0.33,5.73,0.00,21.72,26.47,30.26,14.81,51.96,1026.89,2029.00,1885.41,1916.12,2154.00,599.76,604.43,18.31,0000 0000 0000 0000 000000
2016-12-14 06:39:01,0.32,5.75,0.00,21.75,26.47,30.27,14.80,52.02,1026.90,2029.00,1882.57,1913.88,2151.42,599.76,604.37,18.36,0000 0000 0000 0000 000000
2016-12-14 06:44:03,0.31,5.76,0.00,21.78,26.50,30.30,14.79,51.87,1027.12,2028.99,1879.71,1911.61,2148.85,599.61,604.30,18.41,0000 0000 0000 0000 000000
2016-12-14 06:49:04,0.31,5.78,0.00,21.78,26.50,30.34,14.92,51.89,1027.17,2028.98,1876.87,1909.41,2146.28,600.40,605.10,18.46,0000 0000 0000 0000 000000
2016-12-14 06:54:06,0.32,5.80,0.00,21.78,26.52,30.35,14.82,51.97,1027.30,2028.97,1874.00,1907.17,2143.71,600.20,604.97,18.51,0000 0000 0000 0000 000000
2016-12-14 06:59:07,0.31,5.81,0.00,21.80,26.52,30.35,14.84,52.04,1027.35,2028.97,1871.22,1904.98,2141.19,599.86,604.65,18.56,0000 0000 0000 0000 000000
2016-12-14 07:04:08,0.31,5.83,0.00,21.79,26.55,30.35,14.92,51.99,1027.26,2028.93,1868.39,1902.76,2138.62,600.16,604.81,18.61,0000 0000 0000 0000 000000
2016-12-14 07:09:09,0.31,5.84,0.00,21.77,26.55,30.35,14.85,52.11,1027.02,2028.86,1865.58,1900.51,2136.09,600.07,604.85,18.66,0000 0000 0000 0000 000000
2016-12-14 07:14:11,0.30,5.86,0.00,21.73,26.56,30.41,14.79,51.98,1026.88,2028.77,1862.78,1898.29,2133.49,599.77,604.40,18.71,0000 0000 0000 0000 000000
2016-12-14 07:19:12,0.31,5.87,0.00,21.71,26.57,30.42,14.84,52.06,1026.89,2028.62,1859.87,1896.04,2130.88,599.83,604.49,18.76,0000 0000 0000 0000 000000
2016-12-14 07:24:13,0.29,5.89,0.00,21.75,26.57,30.38,14.88,52.11,1027.29,2028.30,1856.96,1893.72,2128.25,599.82,604.77,18.81,0000 0000 0000 0000 000000
2016-12-14 07:29:15,0.29,5.90,0.00,21.69,26.57,30.38,14.87,52.08,1027.34,2028.11,1854.22,1891.43,2125.61,600.15,605.12,18.87,0000 0000 0000 0000 000000
2016-12-14 07:34:16,0.36,5.92,0.00,21.65,26.57,30.42,14.86,52.20,1026.96,2028.18,1851.38,1889.20,2123.05,600.35,605.21,18.92,0000 0000 0000 0000 000000
2016-12-14 07:39:17,0.34,5.94,0.00,21.68,26.57,30.44,14.92,52.38,1026.87,2028.23,1848.35,1886.90,2120.37,600.42,605.17,18.97,0000 0000 0000 0000 000000
2016-12-14 07:44:18,0.33,5.95,0.00,21.68,26.58,30.35,14.85,52.19,1026.87,2028.23,1845.38,1884.59,2117.80,600.02,604.76,19.02,0000 0000 0000 0000 000000
2016-12-14 07:49:19,0.32,5.97,0.00,21.70,26.58,30.36,14.86,52.12,1026.87,2028.28,1842.62,1882.44,2115.32,600.26,605.01,19.07,0000 0000 0000 0000 000000
2016-12-14 07:54:21,0.29,5.99,0.00,21.71,26.58,30.37,14.83,52.30,1026.87,2028.16,1839.86,1880.29,2112.89,599.66,604.40,19.12,0000 0000 0000 0000 000000
2016-12-14 07:59:22,0.31,6.00,0.00,21.71,26.59,30.41,14.89,52.14,1026.87,2028.08,1837.13,1878.15,2110.50,600.07,604.74,19.17,0000 0000 0000 0000 000000
2016-12-14 08:04:23,0.31,6.02,0.00,21.72,26.59,30.43,14.85,52.25,1026.87,2028.08,1834.40,1876.02,2108.14,599.93,604.51,19.22,0000 0000 0000 0000 000000
2016-12-14 08:09:25,0.30,6.03,0.00,21.75,26.59,30.41,14.80,52.17,1026.87,2028.08,1831.77,1873.92,2105.73,599.96,604.54,19.27,0000 0000 0000 0000 000000
2016-12-14 08:14:26,0.32,6.05,0.00,21.76,26.60,30.39,14.90,52.25,1026.88,2028.06,1829.05,1871.81,2103.31,600.06,604.64,19.32,0000 0000 0000 0000 000000
2016-12-14 08:19:27,0.31,6.06,0.00,21.75,26.60,30.34,14.84,52.36,1026.87,2028.08,1826.36,1869.67,2100.93,600.00,604.59,19.37,0000 0000 0000 0000 000000
2016-12-14 08:24:28,0.31,6.08,0.00,21.77,26.60,30.32,14.84,52.26,1026.87,2028.06,1823.69,1867.61,2098.48,599.96,604.50,19.42,0000 0000 0000 0000 000000
2016-12-14 08:29:30,0.32,6.10,0.00,21.78,26.60,30.35,14.84,52.34,1026.87,2028.08,1820.93,1865.51,2096.11,599.95,604.41,19.47,0000 0000 0000 0000 000000
2016-12-14 08:34:31,0.31,6.11,0.00,21.77,26.60,30.40,14.91,52.29,1026.88,2028.12,1818.28,1863.41,2093.70,600.10,604.68,19.52,0000 0000 0000 0000 000000
2016-12-14 08:39:32,0.31,6.13,0.00,21.78,26.60,30.42,14.84,52.20,1026.87,2028.08,1815.49,1861.24,2091.22,599.80,604.27,19.57,0000 0000 0000 0000 000000
2016-12-14 08:44:34,0.31,6.14,0.00,21.79,26.60,30.37,14.88,52.32,1026.88,2028.09,1812.93,1859.21,2088.83,600.21,604.83,19.62,0000 0000 0000 0000 000000
2016-12-14 08:49:35,0.31,6.16,0.00,21.78,26.60,30.38,14.84,52.24,1026.88,2028.06,1810.30,1857.06,2086.37,599.98,604.53,19.67,0000 0000 0000 0000 000000
2016-12-14 08:54:37,0.30,6.17,0.00,21.79,26.62,30.38,14.81,52.13,1026.89,2028.02,1807.61,1855.01,2083.94,599.84,604.36,19.72,0000 0000 0000 0000 000000
2016-12-14 08:59:38,0.32,6.19,0.00,21.81,26.62,30.35,14.82,52.29,1026.88,2028.01,1804.89,1853.02,2081.55,599.62,604.26,19.77,0000 0000 0000 0000 000000
2016-12-14 09:04:39,0.32,6.21,0.00,21.81,26.62,30.38,14.85,52.44,1026.85,2028.03,1802.19,1850.94,2079.13,600.14,604.57,19.82,0000 0000 0000 0000 000000
2016-12-14 09:09:40,0.31,6.22,0.00,21.83,26.62,30.34,14.79,52.47,1026.69,2028.02,1799.50,1848.82,2076.65,599.82,604.09,19.87,0000 0000 0000 0000 000000
2016-12-14 09:14:42,0.33,6.24,0.00,21.87,26.62,30.42,14.86,52.49,1026.73,2028.01,1796.75,1846.62,2074.15,599.99,604.27,19.92,0000 0000 0000 0000 000000
2016-12-14 09:19:43,0.30,6.25,0.00,21.87,26.64,30.42,14.80,52.58,1026.85,2028.01,1794.16,1844.54,2071.79,600.03,604.45,19.97,0000 0000 0000 0000 000000
2016-12-14 09:24:44,0.32,6.27,0.00,21.84,26.65,30.37,14.87,52.37,1026.86,2028.01,1791.51,1842.42,2069.34,600.07,604.52,20.02,0000 0000 0000 0000 000000
2016-12-14 09:29:46,0.33,6.29,0.00,21.90,26.65,30.42,14.90,52.60,1026.79,2028.01,1788.76,1840.29,2066.89,600.14,604.40,20.07,0000 0000 0000 0000 000000
2016-12-14 09:34:47,0.35,6.30,0.00,21.89,26.66,30.41,14.87,52.83,1026.67,2028.00,1785.96,1838.01,2064.34,600.04,604.29,20.12,0000 0000 0000 0000 000000
2016-12-14 09:39:48,0.36,6.32,0.00,21.86,26.67,30.41,14.82,52.83,1026.75,2028.00,1782.89,1835.54,2061.51,600.14,604.33,20.17,0000 0000 0000 0000 000000
2016-12-14 09:44:50,0.32,6.34,0.00,21.85,26.67,30.41,14.86,52.65,1026.87,2028.00,1780.24,1833.41,2059.06,600.06,604.54,20.22,0000 0000 0000 0000 000000
2016-12-14 09:49:51,0.32,6.36,0.00,21.85,26.67,30.42,14.88,52.67,1026.87,2028.00,1777.52,1831.27,2056.59,600.01,604.47,20.27,0000 0000 0000 0000 000000
2016-12-14 09:54:52,0.32,6.37,0.00,21.85,26.67,30.42,14.92,52.64,1026.87,2028.00,1774.95,1829.18,2054.21,600.11,604.35,20.32,0000 0000 0000 0000 000000
2016-12-14 09:59:54,0.32,6.39,0.00,21.84,26.67,30.37,14.86,52.58,1026.88,2028.00,1772.16,1827.08,2051.77,600.20,604.60,20.37,0000 0000 0000 0000 000000
2016-12-14 10:04:55,0.33,6.40,0.00,21.83,26.67,30.41,14.88,52.72,1026.85,2028.00,1769.52,1824.97,2049.35,599.90,604.33,20.42,0000 0000 0000 0000 000000
2016-12-14 10:09:57,0.31,6.42,0.00,21.82,26.67,30.43,14.85,52.76,1026.83,2028.00,1766.95,1822.87,2047.06,599.82,604.25,20.47,0000 0000 0000 0000 000000
2016-12-14 10:14:59,0.32,6.44,0.00,21.83,26.67,30.45,14.93,52.77,1026.50,2028.00,1764.24,1820.74,2044.80,600.33,604.51,20.52,0000 0000 0000 0000 000000
2016-12-14 10:20:00,0.33,6.46,0.00,21.83,26.67,30.45,14.93,52.91,1026.38,2028.00,1761.55,1818.62,2042.35,600.07,604.12,20.57,0000 0000 0000 0000 000000
2016-12-14 10:25:01,0.32,6.47,0.00,21.78,26.66,30.35,14.90,53.04,1026.29,2028.00,1758.84,1816.46,2039.95,600.18,604.33,20.62,0000 0000 0000 0000 000000
2016-12-14 10:30:02,0.34,6.49,0.00,21.76,26.65,30.40,14.92,53.00,1026.14,2028.00,1756.09,1814.35,2037.47,600.02,604.11,20.67,0000 0000 0000 0000 000000
2016-12-14 10:35:03,0.33,6.51,0.00,21.77,26.65,30.36,14.89,52.80,1026.27,2028.00,1753.33,1812.17,2035.03,599.81,603.95,20.72,0000 0000 0000 0000 000000
2016-12-14 10:40:04,0.32,6.52,0.00,21.75,26.65,30.39,14.93,52.78,1026.38,2028.00,1750.67,1810.11,2032.60,600.40,604.71,20.77,0000 0000 0000 0000 000000
2016-12-14 10:45:06,0.33,6.54,0.00,21.77,26.65,30.35,14.89,52.64,1026.40,2028.00,1748.08,1807.99,2030.21,600.01,604.30,20.82,0000 0000 0000 0000 000000
2016-12-14 10:50:07,0.32,6.56,0.00,21.76,26.65,30.35,14.83,52.48,1026.67,2028.00,1745.47,1805.93,2027.87,600.10,604.54,20.87,0000 0000 0000 0000 000000
2016-12-14 10:55:08,0.33,6.57,0.00,21.76,26.63,30.34,14.78,52.43,1026.60,2028.00,1742.86,1803.90,2025.48,600.08,604.44,20.92,0000 0000 0000 0000 000000
2016-12-14 11:00:10,0.32,6.59,0.00,21.78,26.62,30.38,14.87,52.48,1026.53,2028.00,1740.28,1801.85,2023.17,599.76,604.05,20.97,0000 0000 0000 0000 000000
2016-12-14 11:05:11,0.32,6.60,0.00,21.80,26.62,30.38,14.79,52.50,1026.42,2028.00,1737.68,1799.79,2020.78,599.80,604.12,21.02,0000 0000 0000 0000 000000
2016-12-14 11:10:13,0.33,6.62,0.00,21.81,26.62,30.31,14.86,52.53,1026.40,2028.00,1735.04,1797.73,2018.41,600.15,604.36,21.07,0000 0000 0000 0000 000000
2016-12-14 11:15:14,0.32,6.64,0.00,21.83,26.62,30.32,14.94,52.55,1026.40,2028.00,1732.41,1795.71,2016.12,600.08,604.21,21.12,0000 0000 0000 0000 000000
2016-12-14 11:20:15,0.32,6.65,0.00,21.86,26.63,30.36,14.86,52.76,1026.55,2028.00,1729.83,1793.65,2013.74,600.09,604.22,21.17,0000 0000 0000 0000 000000
2016-12-14 11:25:17,0.30,6.67,0.00,21.89,26.65,30.32,14.91,52.58,1026.73,2028.00,1727.46,1791.72,2011.43,600.06,604.30,21.22,0000 0000 0000 0000 000000
2016-12-14 11:30:18,0.32,6.69,0.00,21.89,26.65,30.34,14.88,52.42,1026.47,2028.00,1725.06,1789.79,2009.15,599.98,604.08,21.27,0000 0000 0000 0000 000000
2016-12-14 11:35:19,0.31,6.70,0.00,21.90,26.65,30.38,14.93,52.54,1026.74,2028.00,1722.55,1787.82,2006.89,600.46,604.91,21.32,0000 0000 0000 0000 000000
2016-12-14 11:40:20,0.33,6.72,0.00,21.94,26.67,30.40,14.90,52.55,1026.65,2028.00,1719.99,1785.78,2004.49,600.24,604.41,21.37,0000 0000 0000 0000 000000
2016-12-14 11:45:21,0.32,6.73,0.00,21.98,26.67,30.43,14.80,52.63,1026.70,2028.00,1717.45,1783.78,2002.21,599.46,603.54,21.42,0000 0000 0000 0000 000000
2016-12-14 11:50:23,0.32,6.75,0.00,21.99,26.68,30.41,14.78,52.65,1026.78,2028.00,1714.98,1781.80,1999.95,599.83,603.92,21.47,0000 0000 0000 0000 000000
2016-12-14 11:55:24,0.31,6.77,0.00,22.03,26.70,30.47,14.83,52.67,1026.81,2027.99,1712.45,1779.78,1997.61,600.01,604.04,21.52,0000 0000 0000 0000 000000
2016-12-14 12:00:26,0.34,6.78,0.00,22.05,26.72,30.44,14.83,52.67,1026.41,2027.97,1709.83,1777.70,1995.23,600.04,603.81,21.57,0000 0000 0000 0000 000000
2016-12-14 12:05:27,0.32,6.80,0.00,22.07,26.73,30.48,14.80,52.78,1026.54,2027.98,1707.31,1775.68,1992.87,599.77,603.54,21.62,0000 0000 0000 0000 000000
2016-12-14 12:10:28,0.29,6.81,0.00,22.09,26.75,30.48,14.82,52.64,1026.80,2027.80,1704.79,1773.64,1990.55,599.79,603.65,21.67,0000 0000 0000 0000 000000
2016-12-14 12:15:29,0.27,6.83,0.00,22.08,26.76,30.52,14.84,52.69,1026.65,2027.28,1702.26,1771.62,1988.23,600.08,603.85,21.72,0000 0000 0000 0000 000000
2016-12-14 12:20:31,0.30,6.84,0.00,22.11,26.77,30.52,14.87,52.77,1026.76,2027.19,1699.79,1769.67,1986.01,600.23,604.08,21.77,0000 0000 0000 0000 000000
2016-12-14 12:25:32,0.30,6.86,0.00,22.12,26.79,30.59,14.79,52.70,1026.69,2027.07,1697.38,1767.74,1983.83,599.42,603.18,21.82,0000 0000 0000 0000 000000
2016-12-14 12:30:33,0.32,6.87,0.00,22.16,26.80,30.57,14.83,52.64,1026.69,2027.04,1694.91,1765.74,1981.68,600.11,603.85,21.87,0000 0000 0000 0000 000000
2016-12-14 12:35:34,0.31,6.89,0.00,22.18,26.82,30.57,14.83,52.50,1026.65,2027.01,1692.39,1763.73,1979.41,600.08,603.70,21.92,0000 0000 0000 0000 000000
2016-12-14 12:40:36,0.33,6.91,0.00,22.22,26.84,30.59,14.74,52.48,1026.42,2027.00,1689.96,1761.77,1977.13,599.96,603.40,21.97,0000 0000 0000 0000 000000
2016-12-14 12:45:37,0.31,6.92,0.00,22.25,26.86,30.60,14.80,52.72,1026.38,2027.00,1687.53,1759.86,1974.90,599.85,603.19,22.02,0000 0000 0000 0000 000000
2016-12-14 12:50:38,0.32,6.94,0.00,22.25,26.87,30.63,14.82,52.59,1026.39,2027.00,1685.11,1757.86,1972.66,599.94,603.21,22.07,0000 0000 0000 0000 000000
2016-12-14 12:55:40,0.32,6.95,0.00,22.25,26.90,30.70,14.81,52.74,1026.39,2027.00,1682.65,1755.95,1970.45,600.14,603.38,22.12,0000 0000 0000 0000 000000